NOAA 16 DEB, 41080

Orbit data source: Space-Track

NOAA 16 DEB, 41080 is space debris in SSO originally from a launch on Thu, 21 Sep 2000 UTC launched from the Air Force Western Test Range (AFWTR). Debris objects in space refer to the collection of defunct objects orbiting the Earth. Examples of debris include non-operational satellites, rocket bodies, and fragments generated from explosions, collisions, or faulty payload assembly.

Loading next visibility...
Identifier
41080, 2000-055AP
Orbit
SSO
Country
Flag of USUS
Related business
Manufacturer
Unknown
Mission
Spacecraft
Bus & Motor
Unknown
Mass
Unknown
Launch date (UTC)
2000-09-21 (25 years ago)
Launch vehicle
Unknown
Launch site
Air Force Western Test Range (AFWTR)
Object type
Payload
Rocket body
Debris
Shape & HBR
Unknown shape, 0.1 m
Radar Cross Section
Small (<0.1 m²)

Expand to show TLE details & history
Last TLE update: 11 hours ago

TLE from 11 hours ago
0 NOAA 16 DEB
1 41080U 00055AP  25343.07865005  .00004274  00000-0  19197-2 0  9997
2 41080  98.5427  26.6502 0006407  79.4408 280.7492 14.22877813517840
Epoch: 2025-12-09T01:53Z
TLE epoch observation values (Epoch: 2025-12-09T01:53:15.364Z)
Latitude
-0.00002°
Longitude
-79.7323°
Altitude
817.703 km
Speed
7.445 km/s
True Right ascension
01h 46m 36s
True Declination
0° 00' 00"
Sunlit
Object was in full shadow at epoch
Visualization orbit readout
Latitude
Unknown
Longitude
Unknown
Altitude
Unknown
Speed
Unknown
Apparent Right ascension
Unknown
Apparent Declination
Unknown
Sunlit
N/A
Visualization observer readout
Local Sidereal Time
10:53:14
Azimuth
Unknown
Elevation
Unknown
Doppler factor
Unknown
Orbital elements
Apogee altitude
817.391 km
Perigee altitude
808.176 km
Semi-major axis
7,190.92 km
Eccentricity
0.00064
Inclination
98.5427°
RAAN
26.6502°
Arg. of periapsis
79.4408°
True anomaly
280.67706°
Mean anomaly
280.7492°
Eccentric anomaly
280.71313°
Mean motion
3.55932 °/min
Orbital period
101.14 mins
BSTAR
0.0019197
Loading maneuver chart data...
Computing Atmospheric mass density...
Loading historical data...
Loading historical data...
Loading historical data...
Loading historical data...
Loading historical data...
Loading historical data...
Loading historical data...

Documentation

Showing up to 5 results
|